Year,Month,Day,Hour,Minute,Value (Times are PST for temperature in C)
2013,03,29,00,00,7.30
2013,03,29,00,01,7.30
2013,03,29,00,02,7.30
2013,03,29,00,03,7.30
2013,03,29,00,04,7.30
2013,03,29,00,05,7.30
2013,03,29,00,06,7.30
2013,03,29,00,07,7.30
2013,03,29,00,08,7.30
2013,03,29,00,09,7.20
2013,03,29,00,10,7.20
2013,03,29,00,11,7.20
2013,03,29,00,12,7.20
2013,03,29,00,13,7.20
2013,03,29,00,14,7.20
2013,03,29,00,15,7.10
2013,03,29,00,16,7.10
2013,03,29,00,17,7.10
2013,03,29,00,18,7.10
2013,03,29,00,19,7.10
2013,03,29,00,20,7.10
2013,03,29,00,21,7.00
2013,03,29,00,22,7.00
2013,03,29,00,23,7.00
2013,03,29,00,24,7.00
2013,03,29,00,25,6.90
2013,03,29,00,26,6.90
2013,03,29,00,27,6.90
2013,03,29,00,28,6.90
2013,03,29,00,29,6.90
2013,03,29,00,30,6.90
2013,03,29,00,31,6.80
2013,03,29,00,32,6.80
2013,03,29,00,33,6.80
2013,03,29,00,34,6.80
2013,03,29,00,35,6.80
2013,03,29,00,36,6.80
2013,03,29,00,37,6.80
2013,03,29,00,38,6.80
2013,03,29,00,39,6.80
2013,03,29,00,40,6.70
2013,03,29,00,41,6.70
2013,03,29,00,42,6.70
2013,03,29,00,43,6.70
2013,03,29,00,44,6.70
2013,03,29,00,45,6.70
2013,03,29,00,46,6.60
2013,03,29,00,47,6.60
2013,03,29,00,48,6.60
2013,03,29,00,49,6.60
2013,03,29,00,50,6.50
2013,03,29,00,51,6.50
2013,03,29,00,52,6.50
2013,03,29,00,53,6.50
2013,03,29,00,54,6.50
2013,03,29,00,55,6.40
2013,03,29,00,56,6.40
2013,03,29,00,57,6.40
2013,03,29,00,58,6.40
2013,03,29,00,59,6.40
2013,03,29,01,00,6.40
2013,03,29,01,01,6.40
2013,03,29,01,02,6.40
2013,03,29,01,03,6.40
2013,03,29,01,04,6.40
2013,03,29,01,05,6.40
2013,03,29,01,06,6.40
2013,03,29,01,07,6.30
2013,03,29,01,08,6.30
2013,03,29,01,09,6.30
2013,03,29,01,10,6.30
2013,03,29,01,11,6.30
2013,03,29,01,12,6.30
2013,03,29,01,13,6.30
2013,03,29,01,14,6.30
2013,03,29,01,15,6.30
2013,03,29,01,16,6.20
2013,03,29,01,17,6.20
2013,03,29,01,18,6.20
2013,03,29,01,19,6.20
2013,03,29,01,20,6.20
2013,03,29,01,21,6.20
2013,03,29,01,22,6.20
2013,03,29,01,23,6.10
2013,03,29,01,24,6.10
2013,03,29,01,25,6.10
2013,03,29,01,26,6.10
2013,03,29,01,27,6.10
2013,03,29,01,28,6.10
2013,03,29,01,29,6.10
2013,03,29,01,30,6.00
2013,03,29,01,31,6.00
2013,03,29,01,32,6.00
2013,03,29,01,33,6.00
2013,03,29,01,34,6.00
2013,03,29,01,35,5.90
2013,03,29,01,36,5.90
2013,03,29,01,37,5.90
2013,03,29,01,38,5.90
2013,03,29,01,39,5.90
2013,03,29,01,40,5.90
2013,03,29,01,41,5.90
2013,03,29,01,42,5.90
2013,03,29,01,43,5.90
2013,03,29,01,44,5.90
2013,03,29,01,45,5.90
2013,03,29,01,46,5.90
2013,03,29,01,47,5.90
2013,03,29,01,48,5.90
2013,03,29,01,49,5.90
2013,03,29,01,50,5.90
2013,03,29,01,51,5.90
2013,03,29,01,52,6.00
2013,03,29,01,53,6.00
2013,03,29,01,54,6.10
2013,03,29,01,55,6.10
2013,03,29,01,56,6.10
2013,03,29,01,57,6.20
2013,03,29,01,58,6.20
2013,03,29,01,59,6.20
2013,03,29,02,00,6.20
2013,03,29,02,01,6.20
2013,03,29,02,02,6.20
2013,03,29,02,03,6.10
2013,03,29,02,04,6.10
2013,03,29,02,05,6.10
2013,03,29,02,06,6.10
2013,03,29,02,07,6.10
2013,03,29,02,08,6.10
2013,03,29,02,09,6.00
2013,03,29,02,10,6.00
2013,03,29,02,11,6.00
2013,03,29,02,12,5.90
2013,03,29,02,13,5.90
2013,03,29,02,14,5.90
2013,03,29,02,15,5.90
2013,03,29,02,16,5.80
2013,03,29,02,17,5.80
2013,03,29,02,18,5.80
2013,03,29,02,19,5.80
2013,03,29,02,20,5.80
2013,03,29,02,21,5.80
2013,03,29,02,22,5.80
2013,03,29,02,23,5.80
2013,03,29,02,24,5.80
2013,03,29,02,25,5.70
2013,03,29,02,26,5.70
2013,03,29,02,27,5.70
2013,03,29,02,28,5.70
2013,03,29,02,29,5.70
2013,03,29,02,30,5.70
2013,03,29,02,31,5.70
2013,03,29,02,32,5.70
2013,03,29,02,33,5.70
2013,03,29,02,34,5.70
2013,03,29,02,35,5.70
2013,03,29,02,36,5.60
2013,03,29,02,37,5.60
2013,03,29,02,38,5.60
2013,03,29,02,39,5.60
2013,03,29,02,40,5.60
2013,03,29,02,41,5.60
2013,03,29,02,42,5.60
2013,03,29,02,43,5.60
2013,03,29,02,44,5.70
2013,03,29,02,45,5.70
2013,03,29,02,46,5.70
2013,03,29,02,47,5.70
2013,03,29,02,48,5.70
2013,03,29,02,49,5.70
2013,03,29,02,50,5.70
2013,03,29,02,51,5.60
2013,03,29,02,52,5.60
2013,03,29,02,53,5.60
2013,03,29,02,54,5.60
2013,03,29,02,55,5.50
2013,03,29,02,56,5.50
2013,03,29,02,57,5.40
2013,03,29,02,58,5.40
2013,03,29,02,59,5.40
2013,03,29,03,00,5.40
2013,03,29,03,01,5.40
2013,03,29,03,02,5.40
2013,03,29,03,03,5.40
2013,03,29,03,04,5.30
2013,03,29,03,05,5.30
2013,03,29,03,06,5.30
2013,03,29,03,07,5.30
2013,03,29,03,08,5.30
2013,03,29,03,09,5.30
2013,03,29,03,10,5.30
2013,03,29,03,11,5.20
2013,03,29,03,12,5.20
2013,03,29,03,13,5.20
2013,03,29,03,14,5.20
2013,03,29,03,15,5.20
2013,03,29,03,16,5.20
2013,03,29,03,17,5.20
2013,03,29,03,18,5.20
2013,03,29,03,19,5.20
2013,03,29,03,20,5.20
2013,03,29,03,21,5.20
2013,03,29,03,22,5.20
2013,03,29,03,23,5.20
2013,03,29,03,24,5.20
2013,03,29,03,25,5.20
2013,03,29,03,26,5.20
2013,03,29,03,27,5.20
2013,03,29,03,28,5.20
2013,03,29,03,29,5.30
2013,03,29,03,30,5.30
2013,03,29,03,31,5.30
2013,03,29,03,32,5.30
2013,03,29,03,33,5.30
2013,03,29,03,34,5.30
2013,03,29,03,35,5.20
2013,03,29,03,36,5.20
2013,03,29,03,37,5.20
2013,03,29,03,38,5.20
2013,03,29,03,39,5.20
2013,03,29,03,40,5.20
2013,03,29,03,41,5.20
2013,03,29,03,42,5.20
2013,03,29,03,43,5.20
2013,03,29,03,44,5.10
2013,03,29,03,45,5.10
2013,03,29,03,46,5.10
2013,03,29,03,47,5.10
2013,03,29,03,48,5.10
2013,03,29,03,49,5.10
2013,03,29,03,50,5.10
2013,03,29,03,51,5.00
2013,03,29,03,52,5.00
2013,03,29,03,53,5.00
2013,03,29,03,54,4.90
2013,03,29,03,55,4.90
2013,03,29,03,56,4.90
2013,03,29,03,57,4.90
2013,03,29,03,58,4.90
2013,03,29,03,59,4.90
2013,03,29,04,00,4.90
2013,03,29,04,01,4.90
2013,03,29,04,02,4.90
2013,03,29,04,03,4.90
2013,03,29,04,04,4.90
2013,03,29,04,05,4.90
2013,03,29,04,06,4.90
2013,03,29,04,07,4.90
2013,03,29,04,08,4.90
2013,03,29,04,09,4.90
2013,03,29,04,10,4.90
2013,03,29,04,11,4.90
2013,03,29,04,12,4.90
2013,03,29,04,13,4.90
2013,03,29,04,14,5.00
2013,03,29,04,15,5.00
2013,03,29,04,16,5.00
2013,03,29,04,17,5.10
2013,03,29,04,18,5.10
2013,03,29,04,19,5.10
2013,03,29,04,20,5.10
2013,03,29,04,21,5.10
2013,03,29,04,22,5.00
2013,03,29,04,23,5.00
2013,03,29,04,24,5.00
2013,03,29,04,25,5.10
2013,03,29,04,26,5.10
2013,03,29,04,27,5.10
2013,03,29,04,28,5.10
2013,03,29,04,29,5.10
2013,03,29,04,30,5.10
2013,03,29,04,31,5.10
2013,03,29,04,32,5.10
2013,03,29,04,33,5.10
2013,03,29,04,34,5.10
2013,03,29,04,35,5.00
2013,03,29,04,36,5.00
2013,03,29,04,37,5.00
2013,03,29,04,38,4.90
2013,03,29,04,39,4.90
2013,03,29,04,40,4.90
2013,03,29,04,41,4.90
2013,03,29,04,42,4.80
2013,03,29,04,43,4.80
2013,03,29,04,44,4.80
2013,03,29,04,45,4.80
2013,03,29,04,46,4.80
2013,03,29,04,47,4.70
2013,03,29,04,48,4.70
2013,03,29,04,49,4.70
2013,03,29,04,50,4.70
2013,03,29,04,51,4.70
2013,03,29,04,52,4.60
2013,03,29,04,53,4.60
2013,03,29,04,54,4.60
2013,03,29,04,55,4.60
2013,03,29,04,56,4.60
2013,03,29,04,57,4.60
2013,03,29,04,58,4.60
2013,03,29,04,59,4.60
2013,03,29,05,00,4.60
2013,03,29,05,01,4.60
2013,03,29,05,02,4.70
2013,03,29,05,03,4.70
2013,03,29,05,04,4.70
2013,03,29,05,05,4.70
2013,03,29,05,06,4.70
2013,03,29,05,07,4.60
2013,03,29,05,08,4.60
2013,03,29,05,09,4.60
2013,03,29,05,10,4.60
2013,03,29,05,11,4.60
2013,03,29,05,12,4.60
2013,03,29,05,13,4.50
2013,03,29,05,14,4.50
2013,03,29,05,15,4.50
2013,03,29,05,16,4.50
2013,03,29,05,17,4.50
2013,03,29,05,18,4.40
2013,03,29,05,19,4.40
2013,03,29,05,20,4.40
2013,03,29,05,21,4.30
2013,03,29,05,22,4.30
2013,03,29,05,23,4.30
2013,03,29,05,24,4.30
2013,03,29,05,25,4.30
2013,03,29,05,26,4.30
2013,03,29,05,27,4.30
2013,03,29,05,28,4.30
2013,03,29,05,29,4.40
2013,03,29,05,30,4.40
2013,03,29,05,31,4.40
2013,03,29,05,32,4.40
2013,03,29,05,33,4.40
2013,03,29,05,34,4.40
2013,03,29,05,35,4.40
2013,03,29,05,36,4.40
2013,03,29,05,37,4.40
2013,03,29,05,38,4.40
2013,03,29,05,39,4.40
2013,03,29,05,40,4.30
2013,03,29,05,41,4.30
2013,03,29,05,42,4.30
2013,03,29,05,43,4.30
2013,03,29,05,44,4.30
2013,03,29,05,45,4.30
2013,03,29,05,46,4.30
2013,03,29,05,47,4.30
2013,03,29,05,48,4.30
2013,03,29,05,49,4.30
2013,03,29,05,50,4.30
2013,03,29,05,51,4.30
2013,03,29,05,52,4.30
2013,03,29,05,53,4.20
2013,03,29,05,54,4.20
2013,03,29,05,55,4.20
2013,03,29,05,56,4.20
2013,03,29,05,57,4.20
2013,03,29,05,58,4.20
2013,03,29,05,59,4.20
2013,03,29,06,00,4.20
2013,03,29,06,01,4.20
2013,03,29,06,02,4.20
2013,03,29,06,03,4.10
2013,03,29,06,04,4.10
2013,03,29,06,05,4.10
2013,03,29,06,06,4.10
2013,03,29,06,07,4.10
2013,03,29,06,08,4.10
2013,03,29,06,09,4.10
2013,03,29,06,10,4.10
2013,03,29,06,11,4.10
2013,03,29,06,12,4.10
2013,03,29,06,13,4.10
2013,03,29,06,14,4.10
2013,03,29,06,15,4.10
2013,03,29,06,16,4.10
2013,03,29,06,17,4.10
2013,03,29,06,18,4.10
2013,03,29,06,19,4.10
2013,03,29,06,20,4.10
2013,03,29,06,21,4.10
2013,03,29,06,22,4.10
2013,03,29,06,23,4.10
2013,03,29,06,24,4.10
2013,03,29,06,25,4.10
2013,03,29,06,26,4.10
2013,03,29,06,27,4.10
2013,03,29,06,28,4.20
2013,03,29,06,29,4.20
2013,03,29,06,30,4.20
2013,03,29,06,31,4.20
2013,03,29,06,32,4.20
2013,03,29,06,33,4.20
2013,03,29,06,34,4.20
2013,03,29,06,35,4.20
2013,03,29,06,36,4.20
2013,03,29,06,37,4.20
2013,03,29,06,38,4.20
2013,03,29,06,39,4.20
2013,03,29,06,40,4.10
2013,03,29,06,41,4.10
2013,03,29,06,42,4.10
2013,03,29,06,43,4.10
2013,03,29,06,44,4.10
2013,03,29,06,45,4.10
2013,03,29,06,46,4.10
2013,03,29,06,47,4.10
2013,03,29,06,48,4.00
2013,03,29,06,49,4.00
2013,03,29,06,50,4.00
2013,03,29,06,51,4.00
2013,03,29,06,52,3.90
2013,03,29,06,53,3.90
2013,03,29,06,54,3.90
2013,03,29,06,55,3.90
2013,03,29,06,56,3.80
2013,03,29,06,57,3.80
2013,03,29,06,58,3.80
2013,03,29,06,59,3.80
2013,03,29,07,00,3.80
2013,03,29,07,01,3.80
2013,03,29,07,02,3.80
2013,03,29,07,03,3.70
2013,03,29,07,04,3.70
2013,03,29,07,05,3.70
2013,03,29,07,06,3.70
2013,03,29,07,07,3.70
2013,03,29,07,08,3.70
2013,03,29,07,09,3.70
2013,03,29,07,10,3.70
2013,03,29,07,11,3.70
2013,03,29,07,12,3.70
2013,03,29,07,13,3.70
2013,03,29,07,14,3.70
2013,03,29,07,15,3.70
2013,03,29,07,16,3.70
2013,03,29,07,17,3.70
2013,03,29,07,18,3.70
2013,03,29,07,19,3.70
2013,03,29,07,20,3.70
2013,03,29,07,21,3.70
2013,03,29,07,22,3.80
2013,03,29,07,23,3.80
2013,03,29,07,24,3.80
2013,03,29,07,25,3.80
2013,03,29,07,26,3.80
2013,03,29,07,27,3.80
2013,03,29,07,28,3.80
2013,03,29,07,29,3.80
2013,03,29,07,30,3.80
2013,03,29,07,31,3.80
2013,03,29,07,32,3.80
2013,03,29,07,33,3.80
2013,03,29,07,34,3.80
2013,03,29,07,35,3.80
2013,03,29,07,36,3.80
2013,03,29,07,37,3.80
2013,03,29,07,38,3.80
2013,03,29,07,39,3.80
2013,03,29,07,40,3.80
2013,03,29,07,41,3.70
2013,03,29,07,42,3.80
2013,03,29,07,43,3.70
2013,03,29,07,44,3.80
2013,03,29,07,45,3.80
2013,03,29,07,46,3.80
2013,03,29,07,47,3.80
2013,03,29,07,48,3.80
2013,03,29,07,49,3.80
2013,03,29,07,50,3.80
2013,03,29,07,51,3.80
2013,03,29,07,52,3.80
2013,03,29,07,53,3.90
2013,03,29,07,54,3.90
2013,03,29,07,55,3.90
2013,03,29,07,56,3.90
2013,03,29,07,57,3.90
2013,03,29,07,58,3.90
2013,03,29,07,59,4.00
2013,03,29,08,00,4.00
2013,03,29,08,01,4.00
2013,03,29,08,02,4.00
2013,03,29,08,03,4.00
2013,03,29,08,04,4.10
2013,03,29,08,05,4.10
2013,03,29,08,06,4.10
2013,03,29,08,07,4.10
2013,03,29,08,08,4.10
2013,03,29,08,09,4.10
2013,03,29,08,10,4.10
2013,03,29,08,11,4.10
2013,03,29,08,12,4.10
2013,03,29,08,13,4.10
2013,03,29,08,14,4.10
2013,03,29,08,15,4.10
2013,03,29,08,16,4.10
2013,03,29,08,17,4.20
2013,03,29,08,18,4.20
2013,03,29,08,19,4.20
2013,03,29,08,20,4.20
2013,03,29,08,21,4.20
2013,03,29,08,22,4.20
2013,03,29,08,23,4.20
2013,03,29,08,24,4.20
2013,03,29,08,25,4.20
2013,03,29,08,26,4.30
2013,03,29,08,27,4.30
2013,03,29,08,28,4.40
2013,03,29,08,29,4.40
2013,03,29,08,30,4.40
2013,03,29,08,31,4.50
2013,03,29,08,32,4.60
2013,03,29,08,33,4.60
2013,03,29,08,34,4.70
2013,03,29,08,35,4.80
2013,03,29,08,36,4.90
2013,03,29,08,37,4.90
2013,03,29,08,38,5.00
2013,03,29,08,39,5.10
2013,03,29,08,40,5.20
2013,03,29,08,41,5.30
2013,03,29,08,42,5.30
2013,03,29,08,43,5.40
2013,03,29,08,44,5.60
2013,03,29,08,45,5.70
2013,03,29,08,46,5.90
2013,03,29,08,47,6.20
2013,03,29,08,48,6.40
2013,03,29,08,49,6.50
2013,03,29,08,50,6.70
2013,03,29,08,51,6.80
2013,03,29,08,52,6.90
2013,03,29,08,53,7.00
2013,03,29,08,54,7.10
2013,03,29,08,55,7.20
2013,03,29,08,56,7.20
2013,03,29,08,57,7.30
2013,03,29,08,58,7.50
2013,03,29,08,59,7.60
2013,03,29,09,00,7.70
2013,03,29,09,01,7.80
2013,03,29,09,02,7.90
2013,03,29,09,03,7.90
2013,03,29,09,04,8.00
2013,03,29,09,05,8.10
2013,03,29,09,06,8.10
2013,03,29,09,07,8.20
2013,03,29,09,08,8.20
2013,03,29,09,09,8.20
2013,03,29,09,10,8.20
2013,03,29,09,11,8.30
2013,03,29,09,12,8.40
2013,03,29,09,13,8.40
2013,03,29,09,14,8.50
2013,03,29,09,15,8.50
2013,03,29,09,16,8.60
2013,03,29,09,17,8.70
2013,03,29,09,18,8.80
2013,03,29,09,19,8.80
2013,03,29,09,20,8.80
2013,03,29,09,21,8.90
2013,03,29,09,22,8.90
2013,03,29,09,23,8.90
2013,03,29,09,24,8.90
2013,03,29,09,25,9.00
2013,03,29,09,26,9.10
2013,03,29,09,27,9.20
2013,03,29,09,28,9.20
2013,03,29,09,29,9.30
2013,03,29,09,30,9.30
2013,03,29,09,31,9.30
2013,03,29,09,32,9.30
2013,03,29,09,33,9.30
2013,03,29,09,34,9.30
2013,03,29,09,35,9.40
2013,03,29,09,36,9.40
2013,03,29,09,37,9.50
2013,03,29,09,38,9.50
2013,03,29,09,39,9.60
2013,03,29,09,40,9.60
2013,03,29,09,41,9.60
2013,03,29,09,42,9.60
2013,03,29,09,43,9.60
2013,03,29,09,44,9.60
2013,03,29,09,45,9.50
2013,03,29,09,46,9.50
2013,03,29,09,47,9.50
2013,03,29,09,48,9.60
2013,03,29,09,49,9.60
2013,03,29,09,50,9.60
2013,03,29,09,51,9.60
2013,03,29,09,52,9.60
2013,03,29,09,53,9.50
2013,03,29,09,54,9.50
2013,03,29,09,55,9.50
2013,03,29,09,56,9.50
2013,03,29,09,57,9.60
2013,03,29,09,58,9.50
2013,03,29,09,59,9.50
2013,03,29,10,00,9.50
2013,03,29,10,01,9.40
2013,03,29,10,02,9.40
2013,03,29,10,03,9.40
2013,03,29,10,04,9.40
2013,03,29,10,05,9.40
2013,03,29,10,06,9.40
2013,03,29,10,07,9.40
2013,03,29,10,08,9.40
2013,03,29,10,09,9.40
2013,03,29,10,10,9.40
2013,03,29,10,11,9.50
2013,03,29,10,12,9.50
2013,03,29,10,13,9.60
2013,03,29,10,14,9.60
2013,03,29,10,15,9.70
2013,03,29,10,16,9.70
2013,03,29,10,17,9.70
2013,03,29,10,18,9.70
2013,03,29,10,19,9.70
2013,03,29,10,20,9.70
2013,03,29,10,21,9.70
2013,03,29,10,22,9.70
2013,03,29,10,23,9.80
2013,03,29,10,24,9.80
2013,03,29,10,25,9.80
2013,03,29,10,26,9.90
2013,03,29,10,27,9.90
2013,03,29,10,28,10.00
2013,03,29,10,29,10.00
2013,03,29,10,30,10.00
2013,03,29,10,31,10.00
2013,03,29,10,32,10.10
2013,03,29,10,33,10.10
2013,03,29,10,34,10.10
2013,03,29,10,35,10.20
2013,03,29,10,36,10.20
2013,03,29,10,37,10.20
2013,03,29,10,38,10.30
2013,03,29,10,39,10.30
2013,03,29,10,40,10.30
2013,03,29,10,41,10.30
2013,03,29,10,42,10.40
2013,03,29,10,43,10.40
2013,03,29,10,44,10.50
2013,03,29,10,45,10.60
2013,03,29,10,46,10.70
2013,03,29,10,47,10.70
2013,03,29,10,48,10.80
2013,03,29,10,49,10.80
2013,03,29,10,50,10.80
2013,03,29,10,51,10.80
2013,03,29,10,52,10.80
2013,03,29,10,53,10.80
2013,03,29,10,54,10.80
2013,03,29,10,55,10.80
2013,03,29,10,56,10.80
2013,03,29,10,57,10.80
2013,03,29,10,58,10.90
2013,03,29,10,59,11.00
2013,03,29,11,00,11.00
2013,03,29,11,01,11.10
2013,03,29,11,02,11.10
2013,03,29,11,03,11.20
2013,03,29,11,04,11.20
2013,03,29,11,05,11.20
2013,03,29,11,06,11.10
2013,03,29,11,07,11.10
2013,03,29,11,08,11.00
2013,03,29,11,09,11.00
2013,03,29,11,10,11.00
2013,03,29,11,11,11.00
2013,03,29,11,12,11.10
2013,03,29,11,13,11.10
2013,03,29,11,14,11.10
2013,03,29,11,15,11.00
2013,03,29,11,16,10.90
2013,03,29,11,17,10.90
2013,03,29,11,18,10.90
2013,03,29,11,19,10.90
2013,03,29,11,20,10.80
2013,03,29,11,21,10.80
2013,03,29,11,22,10.90
2013,03,29,11,23,10.90
2013,03,29,11,24,10.90
2013,03,29,11,25,10.90
2013,03,29,11,26,10.80
2013,03,29,11,27,10.80
2013,03,29,11,28,10.80
2013,03,29,11,29,10.80
2013,03,29,11,30,10.80
2013,03,29,11,31,10.80
2013,03,29,11,32,10.80
2013,03,29,11,33,10.70
2013,03,29,11,34,10.80
2013,03,29,11,35,10.90
2013,03,29,11,36,10.90
2013,03,29,11,37,10.90
2013,03,29,11,38,10.90
2013,03,29,11,39,10.80
2013,03,29,11,40,10.80
2013,03,29,11,41,10.80
2013,03,29,11,42,10.70
2013,03,29,11,43,10.70
2013,03,29,11,44,10.60
2013,03,29,11,45,10.50
2013,03,29,11,46,10.50
2013,03,29,11,47,10.40
2013,03,29,11,48,10.50
2013,03,29,11,49,10.50
2013,03,29,11,50,10.50
2013,03,29,11,51,10.60
2013,03,29,11,52,10.60
2013,03,29,11,53,10.60
2013,03,29,11,54,10.60
2013,03,29,11,55,10.60
2013,03,29,11,56,10.60
2013,03,29,11,57,10.60
2013,03,29,11,58,10.60
2013,03,29,11,59,10.70
2013,03,29,12,00,10.70
2013,03,29,12,01,10.60
2013,03,29,12,02,10.60
2013,03,29,12,03,10.70
2013,03,29,12,04,10.70
2013,03,29,12,05,10.70
2013,03,29,12,06,10.70
2013,03,29,12,07,10.70
2013,03,29,12,08,10.70
2013,03,29,12,09,10.70
2013,03,29,12,10,10.70
2013,03,29,12,11,10.60
2013,03,29,12,12,10.40
2013,03,29,12,13,10.30
2013,03,29,12,14,10.20
2013,03,29,12,15,10.20
2013,03,29,12,16,10.20
2013,03,29,12,17,10.30
2013,03,29,12,18,10.30
2013,03,29,12,19,10.20
2013,03,29,12,20,10.20
2013,03,29,12,21,10.20
2013,03,29,12,22,10.10
2013,03,29,12,23,10.20
2013,03,29,12,24,10.20
2013,03,29,12,25,10.30
2013,03,29,12,26,10.30
2013,03,29,12,27,10.30
2013,03,29,12,28,10.40
2013,03,29,12,29,10.40
2013,03,29,12,30,10.40
2013,03,29,12,31,10.50
2013,03,29,12,32,10.60
2013,03,29,12,33,10.50
2013,03,29,12,34,10.50
2013,03,29,12,35,10.50
2013,03,29,12,36,10.70
2013,03,29,12,37,10.70
2013,03,29,12,38,10.70
2013,03,29,12,39,10.80
2013,03,29,12,40,10.80
2013,03,29,12,41,10.80
2013,03,29,12,42,10.80
2013,03,29,12,43,10.80
2013,03,29,12,44,10.80
2013,03,29,12,45,10.80
2013,03,29,12,46,10.80
2013,03,29,12,47,10.80
2013,03,29,12,48,10.80
2013,03,29,12,49,10.80
2013,03,29,12,50,10.90
2013,03,29,12,51,10.80
2013,03,29,12,52,10.80
2013,03,29,12,53,10.80
2013,03,29,12,54,10.80
2013,03,29,12,55,10.80
2013,03,29,12,56,10.90
2013,03,29,12,57,11.00
2013,03,29,12,58,11.10
2013,03,29,12,59,11.10
2013,03,29,13,00,11.20
2013,03,29,13,01,11.20
2013,03,29,13,02,11.30
2013,03,29,13,03,11.30
2013,03,29,13,04,11.30
2013,03,29,13,05,11.40
2013,03,29,13,06,11.40
2013,03,29,13,07,11.30
2013,03,29,13,08,11.30
2013,03,29,13,09,11.30
2013,03,29,13,10,11.30
2013,03,29,13,11,11.40
2013,03,29,13,12,11.40
2013,03,29,13,13,11.50
2013,03,29,13,14,11.60
2013,03,29,13,15,11.60
2013,03,29,13,16,11.60
2013,03,29,13,17,11.60
2013,03,29,13,18,11.70
2013,03,29,13,19,11.70
2013,03,29,13,20,11.70
2013,03,29,13,21,11.80
2013,03,29,13,22,11.80
2013,03,29,13,23,11.80
2013,03,29,13,24,11.80
2013,03,29,13,25,11.80
2013,03,29,13,26,11.80
2013,03,29,13,27,11.80
2013,03,29,13,28,11.70
2013,03,29,13,29,11.70
2013,03,29,13,30,11.60
2013,03,29,13,31,11.50
2013,03,29,13,32,11.50
2013,03,29,13,33,11.40
2013,03,29,13,34,11.40
2013,03,29,13,35,11.40
2013,03,29,13,36,11.40
2013,03,29,13,37,11.40
2013,03,29,13,38,11.40
2013,03,29,13,39,11.40
2013,03,29,13,40,11.40
2013,03,29,13,41,11.50
2013,03,29,13,42,11.60
2013,03,29,13,43,11.70
2013,03,29,13,44,11.80
2013,03,29,13,45,11.80
2013,03,29,13,46,12.00
2013,03,29,13,47,12.10
2013,03,29,13,48,12.20
2013,03,29,13,49,12.20
2013,03,29,13,50,12.10
2013,03,29,13,51,12.10
2013,03,29,13,52,12.20
2013,03,29,13,53,12.20
2013,03,29,13,54,12.20
2013,03,29,13,55,12.20
2013,03,29,13,56,12.20
2013,03,29,13,57,12.10
2013,03,29,13,58,12.10
2013,03,29,13,59,12.10
2013,03,29,14,00,12.20
2013,03,29,14,01,12.20
2013,03,29,14,02,12.20
2013,03,29,14,03,12.30
2013,03,29,14,04,12.40
2013,03,29,14,05,12.50
2013,03,29,14,06,12.50
2013,03,29,14,07,12.60
2013,03,29,14,08,12.60
2013,03,29,14,09,12.70
2013,03,29,14,10,12.70
2013,03,29,14,11,12.80
2013,03,29,14,12,12.80
2013,03,29,14,13,12.70
2013,03,29,14,14,12.60
2013,03,29,14,15,12.60
2013,03,29,14,16,12.60
2013,03,29,14,17,12.60
2013,03,29,14,18,12.60
2013,03,29,14,19,12.70
2013,03,29,14,20,12.70
2013,03,29,14,21,12.60
2013,03,29,14,22,12.60
2013,03,29,14,23,12.60
2013,03,29,14,24,12.60
2013,03,29,14,25,12.60
2013,03,29,14,26,12.60
2013,03,29,14,27,12.70
2013,03,29,14,28,12.70
2013,03,29,14,29,12.70
2013,03,29,14,30,12.70
2013,03,29,14,31,12.70
2013,03,29,14,32,12.70
2013,03,29,14,33,12.70
2013,03,29,14,34,12.70
2013,03,29,14,35,12.70
2013,03,29,14,36,12.60
2013,03,29,14,37,12.60
2013,03,29,14,38,12.60
2013,03,29,14,39,12.60
2013,03,29,14,40,12.60
2013,03,29,14,41,12.60
2013,03,29,14,42,12.70
2013,03,29,14,43,12.70
2013,03,29,14,44,12.80
2013,03,29,14,45,12.80
2013,03,29,14,46,12.80
2013,03,29,14,47,12.70
2013,03,29,14,48,12.70
2013,03,29,14,49,12.70
2013,03,29,14,50,12.70
2013,03,29,14,51,12.70
2013,03,29,14,52,12.70
2013,03,29,14,53,12.70
2013,03,29,14,54,12.80
2013,03,29,14,55,12.80
2013,03,29,14,56,12.80
2013,03,29,14,57,12.80
2013,03,29,14,58,12.80
2013,03,29,14,59,12.90
2013,03,29,15,00,12.90
2013,03,29,15,01,12.90
2013,03,29,15,02,13.00
2013,03,29,15,03,13.00
2013,03,29,15,04,13.00
2013,03,29,15,05,13.00
2013,03,29,15,06,13.10
2013,03,29,15,07,13.10
2013,03,29,15,08,13.10
2013,03,29,15,09,13.20
2013,03,29,15,10,13.20
2013,03,29,15,11,13.30
2013,03,29,15,12,13.30
2013,03,29,15,13,13.40
2013,03,29,15,14,13.40
2013,03,29,15,15,13.50
2013,03,29,15,16,13.50
2013,03,29,15,17,13.40
2013,03,29,15,18,13.30
2013,03,29,15,19,13.30
2013,03,29,15,20,13.30
2013,03,29,15,21,13.20
2013,03,29,15,22,13.20
2013,03,29,15,23,13.20
2013,03,29,15,24,13.20
2013,03,29,15,25,13.20
2013,03,29,15,26,13.10
2013,03,29,15,27,13.00
2013,03,29,15,28,12.90
2013,03,29,15,29,12.90
2013,03,29,15,30,12.80
2013,03,29,15,31,12.80
2013,03,29,15,32,12.70
2013,03,29,15,33,12.70
2013,03,29,15,34,12.70
2013,03,29,15,35,12.70
2013,03,29,15,36,12.80
2013,03,29,15,37,12.80
2013,03,29,15,38,12.90
2013,03,29,15,39,12.90
2013,03,29,15,40,13.00
2013,03,29,15,41,13.00
2013,03,29,15,42,13.10
2013,03,29,15,43,13.00
2013,03,29,15,44,13.10
2013,03,29,15,45,13.10
2013,03,29,15,46,13.10
2013,03,29,15,47,13.20
2013,03,29,15,48,13.20
2013,03,29,15,49,13.30
2013,03,29,15,50,13.30
2013,03,29,15,51,13.40
2013,03,29,15,52,13.40
2013,03,29,15,53,13.30
2013,03,29,15,54,13.30
2013,03,29,15,55,13.30
2013,03,29,15,56,13.30
2013,03,29,15,57,13.30
2013,03,29,15,58,13.40
2013,03,29,15,59,13.40
2013,03,29,16,00,13.50
2013,03,29,16,01,13.50
2013,03,29,16,02,13.60
2013,03,29,16,03,13.60
2013,03,29,16,04,13.60
2013,03,29,16,05,13.60
2013,03,29,16,06,13.60
2013,03,29,16,07,13.70
2013,03,29,16,08,13.70
2013,03,29,16,09,13.80
2013,03,29,16,10,13.70
2013,03,29,16,11,13.70
2013,03,29,16,12,13.70
2013,03,29,16,13,13.60
2013,03,29,16,14,13.60
2013,03,29,16,15,13.60
2013,03,29,16,16,13.60
2013,03,29,16,17,13.60
2013,03,29,16,18,13.60
2013,03,29,16,19,13.60
2013,03,29,16,20,13.60
2013,03,29,16,21,13.60
2013,03,29,16,22,13.60
2013,03,29,16,23,13.50
2013,03,29,16,24,13.40
2013,03,29,16,25,13.30
2013,03,29,16,26,13.30
2013,03,29,16,27,13.30
2013,03,29,16,28,13.30
2013,03,29,16,29,13.30
2013,03,29,16,30,13.20
2013,03,29,16,31,13.20
2013,03,29,16,32,13.20
2013,03,29,16,33,13.20
2013,03,29,16,34,13.20
2013,03,29,16,35,13.20
2013,03,29,16,36,13.20
2013,03,29,16,37,13.20
2013,03,29,16,38,13.20
2013,03,29,16,39,13.20
2013,03,29,16,40,13.30
2013,03,29,16,41,13.30
2013,03,29,16,42,13.30
2013,03,29,16,43,13.30
2013,03,29,16,44,13.40
2013,03,29,16,45,13.40
2013,03,29,16,46,13.50
2013,03,29,16,47,13.50
2013,03,29,16,48,13.60
2013,03,29,16,49,13.60
2013,03,29,16,50,13.60
2013,03,29,16,51,13.60
2013,03,29,16,52,13.60
2013,03,29,16,53,13.60
2013,03,29,16,54,13.60
2013,03,29,16,55,13.60
2013,03,29,16,56,13.60
2013,03,29,16,57,13.60
2013,03,29,16,58,13.60
2013,03,29,16,59,13.50
2013,03,29,17,00,13.50
2013,03,29,17,01,13.50
2013,03,29,17,02,13.50
2013,03,29,17,03,13.50
2013,03,29,17,04,13.50
2013,03,29,17,05,13.50
2013,03,29,17,06,13.50
2013,03,29,17,07,13.50
2013,03,29,17,08,13.60
2013,03,29,17,09,13.60
2013,03,29,17,10,13.60
2013,03,29,17,11,13.60
2013,03,29,17,12,13.60
2013,03,29,17,13,13.70
2013,03,29,17,14,13.70
2013,03,29,17,15,13.70
2013,03,29,17,16,13.70
2013,03,29,17,17,13.70
2013,03,29,17,18,13.60
2013,03,29,17,19,13.60
2013,03,29,17,20,13.60
2013,03,29,17,21,13.60
2013,03,29,17,22,13.60
2013,03,29,17,23,13.60
2013,03,29,17,24,13.60
2013,03,29,17,25,13.60
2013,03,29,17,26,13.60
2013,03,29,17,27,13.60
2013,03,29,17,28,13.60
2013,03,29,17,29,13.60
2013,03,29,17,30,13.70
2013,03,29,17,31,13.70
2013,03,29,17,32,13.70
2013,03,29,17,33,13.70
2013,03,29,17,34,13.70
2013,03,29,17,35,13.60
2013,03,29,17,36,13.60
2013,03,29,17,37,13.50
2013,03,29,17,38,13.50
2013,03,29,17,39,13.40
2013,03,29,17,40,13.40
2013,03,29,17,41,13.40
2013,03,29,17,42,13.50
2013,03,29,17,43,13.50
2013,03,29,17,44,13.60
2013,03,29,17,45,13.60
2013,03,29,17,46,13.70